Starlink 6037

operational
NORAD ID: 56461 Int'l Des: 2023-064 Owner: SPXS Country: US Constellation: starlink
LEOCIRCULAR

About Starlink 6037

Description loading...

Live Position

Loading 3D Globe...

Upcoming Passes

Altitude History

Altitude vs Time

uPlot chart will show altitude changes over time

Two-Line Element Set

1 56461U 23064P 25303.19855293 -.00000035 00000-0 48891-5 0 9996
2 56461 69.9985 113.3140 0002863 270.2662 89.8169 14.98329914135704
Epoch: Oct 30, 2025 • Age: 16 hours

Current Status

Altitude 575.1 km
Velocity 7.58 km/s
Sub-Earth Point 22.46°N, 127.4°E
Launch Date May 10, 2023
Age 2.4 years
Type internet

Technical Details

Classification Payload
Mass 305.00 kg
Dry Mass 290.00 kg
Total Mass 305.00 kg
Length 0.20 m
Diameter 2.80 m
Span 9.00 m
Shape Box + pan
Manufacturer SPXS
Bus Type Starlink
Phase Status In Orbit
Owner/State SPXS/US

Large Constellations

Loading constellations...